Location: Bartshausen
(51.8454°N, 9.8167°E)
Time: 10:56:57
(UTC+00:00)

Meteor 2-5 Rocket - Pass Details

Date: 08 November 2025
Orbit: 832 x 911 km, 81.2° (Epoch: 09 December)

Event Time Altitude Azimuth Distance (km) Brightness Sun altitude
Rises 05:37:11 0° 223° (SW) 3,529 6.7 -8.1°
Reaches altitude 10° 05:39:56 10° 233° (SW) 2,586 5.9 -7.7°
Maximum altitude 05:45:10 32° 296° (WNW) 1,501 4.5 -6.9°
Drops below altitude 10° 05:50:22 10° 359° (N) 2,564 6.0 -6.2°
Sets 05:53:06 0° 9° (N) 3,495 6.8 -5.8°
